Regional Weather Roundup
Issued by NWS

Home | Current Version | Previous Version | Graphics & Text | Print | Product List | Glossary Off
Versions: 1 2 3 4 5 6 7 8 9 10 11 12 13 14 15 16 17 18 19 20 21 22 23 24 25 26 27

000
ASUS45 KBOU 171106
RWRCO

WEATHER ROUNDUP FOR COLORADO
NATIONAL WEATHER SERVICE DENVER/BOULDER CO
500 AM MDT THU APR 17 2014

NOTE: "FAIR" INDICATES FEW OR NO CLOUDS BELOW 12000 FEET WITH NO
SIGNIFICANT WEATHER AND/OR OBSTRUCTIONS TO VISIBILITY.

COZ001>005-013-030-031-171200-
...NORTHWEST COLORADO...

CITY           SKY/WX    TMP DP  RH WIND       PRES   REMARKS
CRAIG          MOCLDY    22  17  81 CALM      30.08R
HAYDEN         CLEAR     27  16  63 CALM      30.09R
MEEKER         CLEAR     29  21  72 CALM      30.07R
MOUNT WERNER   NOT AVBL
STEAMBOAT SPGS CLEAR     27  15  62 CALM      30.07R
WALDEN         MOCLDY    21  14  73 CALM      30.06R
$$

COZ006>008-011-171200-
...WEST CENTRAL VALLEYS...

CITY           SKY/WX    TMP DP  RH WIND       PRES   REMARKS
GRAND JUNCTION CLEAR     37  21  52 E12       30.02R
MONTROSE       CLEAR     34  25  69 SE7       30.07R WCI  28
EAGLE          PTCLDY    27  19  74 CALM      30.11R
RIFLE          CLEAR     31  22  69 SE3       30.06R
DELTA          CLEAR     37  23  57 NE6       30.06R
NUCLA            N/A     32  25  74 E9        30.09R WCI  24
$$

COZ017>023-064>068-171200-
...SOUTHWEST COLORADO...

CITY           SKY/WX    TMP DP  RH WIND       PRES   REMARKS
DURANGO        CLEAR     28  19  69 CALM      30.05R
CORTEZ         CLEAR     26  20  77 NE6       30.06S WCI  19
PAGOSA SPRINGS CLEAR     27  20  75 CALM      30.08R
TELLURIDE      PTCLDY    28  21  74 SE6       30.11R WCI  22
WOLF CREEK PAS CLEAR     19  12  73 N5        30.14S WCI  13
$$

COZ009-010-012-014-032>034-037-058>063-171200-
...CENTRAL COLORADO...

CITY           SKY/WX    TMP DP  RH WIND       PRES   REMARKS
ASPEN          PTCLDY    29  15  56 S6        30.07R WCI  23
BUENA VISTA    CLOUDY    28  27  95 S3        30.13R
COPPER MTN     MOCLDY    23  10  58 SW12G17   30.11S WCI  12
BERTHOUD PASS  FAIR      14   5  67 NW28      30.08F WCI  -6
COTTONWOOD PAS CLOUDY    28  27  93 CALM      30.12S
GUNNISON       CLEAR     25  18  74 N5        30.14R WCI  19
KREMMLING      CLOUDY    27  19  74 CALM      30.10R
LEADVILLE      CLOUDY    21  19  92 SE5       30.11R WCI  15
MONARCH PASS   MOCLDY    18  16  93 W3        30.23R
SALIDA         MOCLDY    32  31  96 CALM      30.20S
SUNLIGHT       PTCLDY    28  14  54 CALM      30.13S
WILKERSON PASS CLOUDY    19  18  93 SW8       30.14R FOG     WCI   9
$$

COZ069>075-171200-
...SAN LUIS VALLEY/SANGRE DE CRISTO MOUNTAINS...

CITY           SKY/WX    TMP DP  RH WIND       PRES   REMARKS
ALAMOSA        CLOUDY    31  28  89 SE5       30.11R WCI  26
LA VETA PASS   FOG       23  21  93 CALM      30.12S VSB<1/4
SAGUACHE       CLOUDY    30  27  86 CALM      30.12R
$$

COZ035-036-038>040-171200-
...NORTHERN COLORADO FRONT RANGE...

CITY           SKY/WX    TMP DP  RH WIND       PRES   REMARKS
DENVER INTL AP PTCLDY    32  28  85 S14       30.05F WCI  22
DMNS CITY PARK   N/A     37  29  74 S7        30.06R
AURORA         PTCLDY    36  32  87 S22       30.04F
FRONT RANGE AP NOT AVBL
ERIE MUNI ARPT CLEAR     32  29  89 CALM      30.06R
BOULDER MUN AP CLEAR     34  30  86 CALM      30.05R
CENTENNIAL     PTCLDY    33  29  85 S14       30.06S WCI  23
BROOMFIELD     CLEAR     32  30  93 W6        30.06S WCI  26
FORT COLLINS   CLEAR     28  25  86 N5        30.09R WCI  23
LONGMONT       CLEAR     31  27  86 CALM      30.08R
$$

COZ041-046-047-076>085-087-088-171200-
...PIKES PEAK/PALMER DIVIDE AND SOUTHERN FOOTHILLS...

CITY           SKY/WX    TMP DP  RH WIND       PRES   REMARKS
COLO. SPRINGS  FOG       33  32  96 SE15      30.12F VSB 1/8 WCI  23
A. F. ACADEMY  CLOUDY    32  32 100 CALM      30.11S
ELLICOTT       NOT AVBL
FALCON         CLOUDY    32  32 100 S13       30.13R FOG     WCI  22
FORT CARSON    PTCLDY    31  31  99 S10       30.11S WCI  23
LIMON          MOCLDY    34  33  96 S9        30.12S WCI  27
MONUMENT HILL  CLOUDY    30  30 100 S13G22    30.09R WCI  20
TRINIDAD       LGT SNOW  34  32  92 CALM      30.15S FOG
$$

COZ042>045-048>051-090-091-171200-
...NORTHEAST COLORADO...

CITY           SKY/WX    TMP DP  RH WIND       PRES   REMARKS
GREELEY ARPT   CLEAR     30  25  80 E7        30.09R WCI  23
AKRON          FOG       31  31 100 SE18      30.12S VSB 1/4 WCI  19
BURLINGTON     CLOUDY    33  30  88 SE6       30.16R WCI  28
WRAY           CLOUDY    33  32  95 SE5       30.18R WCI  28
STERLING       CLOUDY    36  36 100 SE7       30.14S FOG
HOLYOKE        CLOUDY    34  32  93 E8        30.18S FOG     WCI  27
FORT MORGAN    PTCLDY    30  29  95 E9        30.11S WCI  22
$$

COZ086-089-092>099-171200-
...SOUTHEAST COLORADO...

CITY           SKY/WX    TMP DP  RH WIND       PRES   REMARKS
PUEBLO         CLOUDY    38  36  92 SW5       30.14F
LA JUNTA       CLOUDY    40  37  89 SE6       30.15F
LAMAR          LGT RAIN  41  38  89 NE3       30.15R
SPRINGFIELD      N/A     37  36  96 NE14      30.15R
$$



USA.gov is the U.S. government's official web portal to all federal, state and local government web resources and services.